STARLINK-2631 (48366 NORAD) Tracking and Keplerian Element Data

This shows tracking and keplerian element data for the satellite.

Feedback or suggestion? Click here.




ElementValue
Catalog48366
NameSTARLINK-2631
Epoch Orbit1393
Epoch Day214.60727384
Epoch Year2021
RAAN333.7921
Inclination53.0539
Eccentricity0.0001046
Argument of Perigee117.1941
Mean Anonmoly242.9155
Mean Motion15.06399674
Decay Rate7.37E-06
L11 48366U 21038P 21214.60727384 .00000737 00000-0 68388-4 0 9992
L22 48366 53.0539 333.7921 0001046 117.1941 242.9155 15.06399674 13931

Live tracking and technical data element details for STARLINK-2631 (NORAD 48366). STARLINK-2631 can be tracked NOW for your location showing map with azimuth and elevation plus other details from your city location.

Track the satellite on the map from your city or location and see movement details for azimuth, elevation, latitude, longitude, range, height, and movement on the map or in text.







IsCatalogInMostPopularTable: catalog: 48366, numindb: 28
Update: records affected: 1



GetName: 48366 STARLINK-2631

Hit Count: updated at: Tue, 03 Aug 2021 20:10:14 GMT